This is the latest recevied weather packets stored in our database for station/object KR4ELZ. If no packets are shown the sender has not sent any weather packets the latest 10 day(s).
| Time | Temp. | Humidity | Pressure | Rain* | Wind** | Luminosity | Snow |
|---|---|---|---|---|---|---|---|
| 1777840226 | 23.33° C | 37% | 1017.9 hPa | 0 mm | - | 481 W/m² | - |
| 1777839923 | 22.78° C | 36% | 1018.1 hPa | 0 mm | - | 492 W/m² | - |
| 1777839621 | 22.22° C | 36% | 1017.9 hPa | 0 mm | - | 506 W/m² | - |
| 1777838107 | 22.78° C | 37% | 1018.6 hPa | 0 mm | - | 555 W/m² | - |
| 1777836587 | 22.22° C | 37% | 1019 hPa | 0 mm | - | 599 W/m² | - |
| 1777835979 | 21.67° C | 38% | 1019.3 hPa | 0 mm | - | 613 W/m² | - |
| 1777832649 | 20.56° C | 37% | 1020.1 hPa | 0 mm | - | 49 W/m² | - |
| 1777831739 | 21.11° C | 39% | 1020.4 hPa | 0 mm | - | 678 W/m² | - |
| 1777829017 | 19.44° C | 40% | 1021.3 hPa | 0 mm | - | 679 W/m² | - |
| 1777828107 | 20° C | 40% | 1021.3 hPa | 0 mm | - | 677 W/m² | - |
| 1777826894 | 21.11° C | 40% | 1021.5 hPa | 0 mm | - | 661 W/m² | - |
| 1777826592 | 20.56° C | 39% | 1021.7 hPa | 0 mm | - | 660 W/m² | - |
| 1777826287 | 20° C | 40% | 1021.4 hPa | 0 mm | - | 653 W/m² | - |
| 1777825986 | 20° C | 42% | 1021.5 hPa | 0 mm | - | 649 W/m² | - |
| 1777825682 | 18.89° C | 44% | 1021.6 hPa | 0 mm | - | 643 W/m² | - |
| 1777825076 | 19.44° C | 40% | 1021.7 hPa | 0 mm | - | 634 W/m² | - |
| 1777824470 | 19.44° C | 41% | 1022 hPa | 0 mm | - | 619 W/m² | - |
| 1777824165 | 19.44° C | 42% | 1022 hPa | 0 mm | - | 611 W/m² | - |
| 1777823560 | 18.33° C | 44% | 1021.9 hPa | 0 mm | - | 592 W/m² | - |
| 1777822652 | 18.89° C | 45% | 1022.1 hPa | 0 mm | - | 569 W/m² | - |
| 1777822047 | 18.33° C | 44% | 1022.3 hPa | 0 mm | - | 550 W/m² | - |
| 1777821745 | 17.78° C | 46% | 1022.5 hPa | 0 mm | - | 540 W/m² | - |
| 1777821441 | 18.33° C | 45% | 1022.5 hPa | 0 mm | - | 528 W/m² | - |
| 1777821139 | 18.33° C | 45% | 1022.5 hPa | 0 mm | - | 519 W/m² | - |
| 1777820532 | 17.22° C | 48% | 1022.3 hPa | 0 mm | - | 499 W/m² | - |
* Rain latest hour (hover to see other rain measurements)
** Current wind speed in m/s (hover to see current wind gust speed)